Year,Month,Day,Hour,Minute,Value (Times are PST for temperature in C)
2018,04,24,07,40,11.10
2018,04,24,07,41,11.20
2018,04,24,07,42,11.20
2018,04,24,07,43,11.20
2018,04,24,07,44,11.30
2018,04,24,07,45,11.30
2018,04,24,07,46,11.30
2018,04,24,07,47,11.40
2018,04,24,07,48,11.40
2018,04,24,07,49,11.40
2018,04,24,07,50,11.50
2018,04,24,07,51,11.50
2018,04,24,07,52,11.60
2018,04,24,07,53,11.60
2018,04,24,07,54,11.60
2018,04,24,07,55,11.60
2018,04,24,07,56,11.70
2018,04,24,07,57,11.70
2018,04,24,07,58,11.70
2018,04,24,07,59,11.80
2018,04,24,08,00,11.80
2018,04,24,08,01,11.80
2018,04,24,08,02,11.90
2018,04,24,08,03,11.90
2018,04,24,08,04,11.90
2018,04,24,08,05,11.90
2018,04,24,08,06,12.00
2018,04,24,08,07,12.00
2018,04,24,08,08,12.00
2018,04,24,08,09,12.00
2018,04,24,08,10,12.00
2018,04,24,08,11,12.00
2018,04,24,08,12,12.00
2018,04,24,08,13,12.00
2018,04,24,08,14,12.00
2018,04,24,08,15,12.00
2018,04,24,08,16,12.00
2018,04,24,08,17,12.10
2018,04,24,08,18,12.10
2018,04,24,08,19,12.10
2018,04,24,08,20,12.10
2018,04,24,08,21,12.20
2018,04,24,08,22,12.20
2018,04,24,08,23,12.20
2018,04,24,08,24,12.20
2018,04,24,08,25,12.30
2018,04,24,08,26,12.30
2018,04,24,08,27,12.30
2018,04,24,08,28,12.40
2018,04,24,08,29,12.40
2018,04,24,08,30,12.50
2018,04,24,08,31,12.50
2018,04,24,08,32,12.50
2018,04,24,08,33,12.50
2018,04,24,08,34,12.60
2018,04,24,08,35,12.60
2018,04,24,08,36,12.60
2018,04,24,08,37,12.60
2018,04,24,08,38,12.60
2018,04,24,08,39,12.60
2018,04,24,08,40,12.70
2018,04,24,08,41,12.70
2018,04,24,08,42,12.70
2018,04,24,08,43,12.80
2018,04,24,08,44,12.80
2018,04,24,08,45,12.80
2018,04,24,08,46,12.80
2018,04,24,08,47,12.80
2018,04,24,08,48,12.80
2018,04,24,08,49,12.80
2018,04,24,08,50,12.80
2018,04,24,08,51,12.90
2018,04,24,08,52,12.90
2018,04,24,08,53,13.00
2018,04,24,08,54,13.00
2018,04,24,08,55,13.00
2018,04,24,08,56,13.00
2018,04,24,08,57,13.10
2018,04,24,08,58,13.10
2018,04,24,08,59,13.20
2018,04,24,09,00,13.20
2018,04,24,09,01,13.30
2018,04,24,09,02,13.30
2018,04,24,09,03,13.30
2018,04,24,09,04,13.30
2018,04,24,09,05,13.30
2018,04,24,09,06,13.30
2018,04,24,09,07,13.40
2018,04,24,09,08,13.40
2018,04,24,09,09,13.40
2018,04,24,09,10,13.50
2018,04,24,09,11,13.50
2018,04,24,09,12,13.60
2018,04,24,09,13,13.60
2018,04,24,09,14,13.70
2018,04,24,09,15,13.70
2018,04,24,09,16,13.70
2018,04,24,09,17,13.70
2018,04,24,09,18,13.70
2018,04,24,09,19,13.70
2018,04,24,09,20,13.70
2018,04,24,09,21,13.70
2018,04,24,09,22,13.70
2018,04,24,09,23,13.70
2018,04,24,09,24,13.70
2018,04,24,09,25,13.70
2018,04,24,09,26,13.70
2018,04,24,09,27,13.70
2018,04,24,09,28,13.70
2018,04,24,09,29,13.70
2018,04,24,09,30,13.70
2018,04,24,09,31,13.70
2018,04,24,09,32,13.70
2018,04,24,09,33,13.70
2018,04,24,09,34,13.70
2018,04,24,09,35,13.70
2018,04,24,09,36,13.70
2018,04,24,09,37,13.80
2018,04,24,09,38,13.80
2018,04,24,09,39,13.90
2018,04,24,09,40,13.90
2018,04,24,09,41,13.90
2018,04,24,09,42,13.90
2018,04,24,09,43,13.80
2018,04,24,09,44,13.80
2018,04,24,09,45,13.80
2018,04,24,09,46,13.80
2018,04,24,09,47,13.80
2018,04,24,09,48,13.70
2018,04,24,09,49,13.80
2018,04,24,09,50,13.80
2018,04,24,09,51,13.80
2018,04,24,09,52,13.70
2018,04,24,09,53,13.70
2018,04,24,09,54,13.70
2018,04,24,09,55,13.80
2018,04,24,09,56,13.80
2018,04,24,09,57,13.80
2018,04,24,09,58,13.80
2018,04,24,09,59,13.80
2018,04,24,10,00,13.90
2018,04,24,10,01,14.00
2018,04,24,10,02,14.10
2018,04,24,10,03,14.20
2018,04,24,10,04,14.30
2018,04,24,10,05,14.30
2018,04,24,10,06,14.40
2018,04,24,10,07,14.50
2018,04,24,10,08,14.60
2018,04,24,10,09,14.60
2018,04,24,10,10,14.60
2018,04,24,10,11,14.60
2018,04,24,10,12,14.60
2018,04,24,10,13,14.60
2018,04,24,10,14,14.60
2018,04,24,10,15,14.70
2018,04,24,10,16,14.60
2018,04,24,10,17,14.70
2018,04,24,10,18,14.70
2018,04,24,10,19,14.70
2018,04,24,10,20,14.70
2018,04,24,10,21,14.70
2018,04,24,10,22,14.80
2018,04,24,10,23,14.80
2018,04,24,10,24,14.90
2018,04,24,10,25,14.90
2018,04,24,10,26,15.00
2018,04,24,10,27,14.90
2018,04,24,10,28,14.90
2018,04,24,10,29,14.90
2018,04,24,10,30,14.90
2018,04,24,10,31,14.90
2018,04,24,10,32,14.90
2018,04,24,10,33,15.00
2018,04,24,10,34,15.00
2018,04,24,10,35,15.10
2018,04,24,10,36,15.10
2018,04,24,10,37,15.20
2018,04,24,10,38,15.20
2018,04,24,10,39,15.20
2018,04,24,10,40,15.20
2018,04,24,10,41,15.30
2018,04,24,10,42,15.30
2018,04,24,10,43,15.40
2018,04,24,10,44,15.40
2018,04,24,10,45,15.40
2018,04,24,10,46,15.40
2018,04,24,10,47,15.40
2018,04,24,10,48,15.40
2018,04,24,10,49,15.40
2018,04,24,10,50,15.40
2018,04,24,10,51,15.40
2018,04,24,10,52,15.40
2018,04,24,10,53,15.40
2018,04,24,10,54,15.40
2018,04,24,10,55,15.40
2018,04,24,10,56,15.50
2018,04,24,10,57,15.60
2018,04,24,10,58,15.60
2018,04,24,10,59,15.70
2018,04,24,11,00,15.60
2018,04,24,11,01,15.70
2018,04,24,11,02,15.70
2018,04,24,11,03,15.70
2018,04,24,11,04,15.70
2018,04,24,11,05,15.80
2018,04,24,11,06,15.90
2018,04,24,11,07,15.90
2018,04,24,11,08,15.90
2018,04,24,11,09,16.00
2018,04,24,11,10,16.00
2018,04,24,11,11,16.00
2018,04,24,11,12,16.00
2018,04,24,11,13,15.90
2018,04,24,11,14,15.90
2018,04,24,11,15,15.80
2018,04,24,11,16,15.80
2018,04,24,11,17,15.80
2018,04,24,11,18,15.80
2018,04,24,11,19,15.80
2018,04,24,11,20,15.80
2018,04,24,11,21,15.90
2018,04,24,11,22,15.90
2018,04,24,11,23,15.90
2018,04,24,11,24,15.80
2018,04,24,11,25,15.80
2018,04,24,11,26,15.80
2018,04,24,11,27,15.90
2018,04,24,11,28,15.90
2018,04,24,11,29,16.00
2018,04,24,11,30,16.10
2018,04,24,11,31,16.20
2018,04,24,11,32,16.30
2018,04,24,11,33,16.40
2018,04,24,11,34,16.40
2018,04,24,11,35,16.40
2018,04,24,11,36,16.40
2018,04,24,11,37,16.40
2018,04,24,11,38,16.40
2018,04,24,11,39,16.40
2018,04,24,11,40,16.30
2018,04,24,11,41,16.30
2018,04,24,11,42,16.40
2018,04,24,11,43,16.50
2018,04,24,11,44,16.50
2018,04,24,11,45,16.60
2018,04,24,11,46,16.60
2018,04,24,11,47,16.60
2018,04,24,11,48,16.60
2018,04,24,11,49,16.60
2018,04,24,11,50,16.60
2018,04,24,11,51,16.60
2018,04,24,11,52,16.60
2018,04,24,11,53,16.60
2018,04,24,11,54,16.60
2018,04,24,11,55,16.60
2018,04,24,11,56,16.60
2018,04,24,11,57,16.60
2018,04,24,11,58,16.60
2018,04,24,11,59,16.60
2018,04,24,12,00,16.60
2018,04,24,12,01,16.70
2018,04,24,12,02,16.70
2018,04,24,12,03,16.80
2018,04,24,12,04,16.90
2018,04,24,12,05,16.90
2018,04,24,12,06,17.00
2018,04,24,12,07,17.00
2018,04,24,12,08,17.00
2018,04,24,12,09,17.00
2018,04,24,12,10,17.00
2018,04,24,12,11,17.00
2018,04,24,12,12,16.90
2018,04,24,12,13,16.90
2018,04,24,12,14,16.90
2018,04,24,12,15,16.90
2018,04,24,12,16,16.90
2018,04,24,12,17,17.00
2018,04,24,12,18,17.00
2018,04,24,12,19,17.00
2018,04,24,12,20,17.00
2018,04,24,12,21,17.10
2018,04,24,12,22,17.00
2018,04,24,12,23,17.00
2018,04,24,12,24,16.90
2018,04,24,12,25,16.80
2018,04,24,12,26,16.80
2018,04,24,12,27,16.80
2018,04,24,12,28,16.80
2018,04,24,12,29,16.80
2018,04,24,12,30,16.80
2018,04,24,12,31,16.80
2018,04,24,12,32,16.80
2018,04,24,12,33,16.80
2018,04,24,12,34,16.80
2018,04,24,12,35,16.90
2018,04,24,12,36,16.90
2018,04,24,12,37,16.90
2018,04,24,12,38,16.90
2018,04,24,12,39,17.00
2018,04,24,12,40,17.00
2018,04,24,12,41,17.10
2018,04,24,12,42,17.10
2018,04,24,12,43,17.20
2018,04,24,12,44,17.20
2018,04,24,12,45,17.30
2018,04,24,12,46,17.30
2018,04,24,12,47,17.20
2018,04,24,12,48,17.20
2018,04,24,12,49,17.20
2018,04,24,12,50,17.20
2018,04,24,12,51,17.20
2018,04,24,12,52,17.20
2018,04,24,12,53,17.20
2018,04,24,12,54,17.20
2018,04,24,12,55,17.30
2018,04,24,12,56,17.30
2018,04,24,12,57,17.30
2018,04,24,12,58,17.30
2018,04,24,12,59,17.30
2018,04,24,13,00,17.30
2018,04,24,13,01,17.30
2018,04,24,13,02,17.30
2018,04,24,13,03,17.40
2018,04,24,13,04,17.40
2018,04,24,13,05,17.30
2018,04,24,13,06,17.40
2018,04,24,13,07,17.40
2018,04,24,13,08,17.40
2018,04,24,13,09,17.40
2018,04,24,13,10,17.40
2018,04,24,13,11,17.40
2018,04,24,13,12,17.40
2018,04,24,13,13,17.40
2018,04,24,13,14,17.50
2018,04,24,13,15,17.60
2018,04,24,13,16,17.60
2018,04,24,13,17,17.70
2018,04,24,13,18,17.70
2018,04,24,13,19,17.70
2018,04,24,13,20,17.70
2018,04,24,13,21,17.70
2018,04,24,13,22,17.70
2018,04,24,13,23,17.80
2018,04,24,13,24,17.80
2018,04,24,13,25,17.70
2018,04,24,13,26,17.80
2018,04,24,13,27,17.80
2018,04,24,13,28,17.70
2018,04,24,13,29,17.70
2018,04,24,13,30,17.70
2018,04,24,13,31,17.70
2018,04,24,13,32,17.70
2018,04,24,13,33,17.80
2018,04,24,13,34,17.80
2018,04,24,13,35,17.90
2018,04,24,13,36,17.90
2018,04,24,13,37,17.90
2018,04,24,13,38,18.00
2018,04,24,13,39,18.00
2018,04,24,13,40,18.00
2018,04,24,13,41,18.10
2018,04,24,13,42,18.10
2018,04,24,13,43,18.00
2018,04,24,13,44,18.00
2018,04,24,13,45,18.00
2018,04,24,13,46,18.00
2018,04,24,13,47,18.00
2018,04,24,13,48,18.00
2018,04,24,13,49,18.00
2018,04,24,13,50,18.00
2018,04,24,13,51,18.10
2018,04,24,13,52,18.10
2018,04,24,13,53,18.20
2018,04,24,13,54,18.30
2018,04,24,13,55,18.30
2018,04,24,13,56,18.30
2018,04,24,13,57,18.30
2018,04,24,13,58,18.40
2018,04,24,13,59,18.30
2018,04,24,14,00,18.30
2018,04,24,14,01,18.30
2018,04,24,14,02,18.30
2018,04,24,14,03,18.30
2018,04,24,14,04,18.40
2018,04,24,14,05,18.50
2018,04,24,14,06,18.50
2018,04,24,14,07,18.60
2018,04,24,14,08,18.60
2018,04,24,14,09,18.70
2018,04,24,14,10,18.70
2018,04,24,14,11,18.70
2018,04,24,14,12,18.70
2018,04,24,14,13,18.60
2018,04,24,14,14,18.50
2018,04,24,14,15,18.40
2018,04,24,14,16,18.50
2018,04,24,14,17,18.60
2018,04,24,14,18,18.70
2018,04,24,14,19,18.70
2018,04,24,14,20,18.70
2018,04,24,14,21,18.70
2018,04,24,14,22,18.70
2018,04,24,14,23,18.60
2018,04,24,14,24,18.50
2018,04,24,14,25,18.50
2018,04,24,14,26,18.40
2018,04,24,14,27,18.40
2018,04,24,14,28,18.30
2018,04,24,14,29,18.30
2018,04,24,14,30,18.30
2018,04,24,14,31,18.30
2018,04,24,14,32,18.30
2018,04,24,14,33,18.30
2018,04,24,14,34,18.30
2018,04,24,14,35,18.40
2018,04,24,14,36,18.40
2018,04,24,14,37,18.50
2018,04,24,14,38,18.60
2018,04,24,14,39,18.70
2018,04,24,14,40,18.80
2018,04,24,14,41,18.90
2018,04,24,14,42,18.90
2018,04,24,14,43,19.00
2018,04,24,14,44,18.90
2018,04,24,14,45,18.90
2018,04,24,14,46,18.80
2018,04,24,14,47,18.80
2018,04,24,14,48,18.90
2018,04,24,14,49,18.90
2018,04,24,14,50,18.90
2018,04,24,14,51,19.00
2018,04,24,14,52,19.10
2018,04,24,14,53,19.10
2018,04,24,14,54,19.10
2018,04,24,14,55,19.10
2018,04,24,14,56,19.10
2018,04,24,14,57,19.20
2018,04,24,14,58,19.20
2018,04,24,14,59,19.20
2018,04,24,15,00,19.20
2018,04,24,15,01,19.20
2018,04,24,15,02,19.20
2018,04,24,15,03,19.30
2018,04,24,15,04,19.40
2018,04,24,15,05,19.40
2018,04,24,15,06,19.40
2018,04,24,15,07,19.40
2018,04,24,15,08,19.40
2018,04,24,15,09,19.30
2018,04,24,15,10,19.30
2018,04,24,15,11,19.20
2018,04,24,15,12,19.20
2018,04,24,15,13,19.20
2018,04,24,15,14,19.10
2018,04,24,15,15,19.10
2018,04,24,15,16,19.10
2018,04,24,15,17,19.10
2018,04,24,15,18,19.20
2018,04,24,15,19,19.20
2018,04,24,15,20,19.20
2018,04,24,15,21,19.30
2018,04,24,15,22,19.30
2018,04,24,15,23,19.20
2018,04,24,15,24,19.20
2018,04,24,15,25,19.20
2018,04,24,15,26,19.20
2018,04,24,15,27,19.20
2018,04,24,15,28,19.30
2018,04,24,15,29,19.20
2018,04,24,15,30,19.20
2018,04,24,15,31,19.30
2018,04,24,15,32,19.30
2018,04,24,15,33,19.30
2018,04,24,15,34,19.30
2018,04,24,15,35,19.30
2018,04,24,15,36,19.30
2018,04,24,15,37,19.30
2018,04,24,15,38,19.30
2018,04,24,15,39,19.30
2018,04,24,15,40,19.30
2018,04,24,15,41,19.30
2018,04,24,15,42,19.40
2018,04,24,15,43,19.40
2018,04,24,15,44,19.50
2018,04,24,15,45,19.60
2018,04,24,15,46,19.60
2018,04,24,15,47,19.70
2018,04,24,15,48,19.70
2018,04,24,15,49,19.70
2018,04,24,15,50,19.60
2018,04,24,15,51,19.60
2018,04,24,15,52,19.60
2018,04,24,15,53,19.60
2018,04,24,15,54,19.60
2018,04,24,15,55,19.60
2018,04,24,15,56,19.60
2018,04,24,15,57,19.60
2018,04,24,15,58,19.60
2018,04,24,15,59,19.60
2018,04,24,16,00,19.60
2018,04,24,16,01,19.60
2018,04,24,16,02,19.60
2018,04,24,16,03,19.60
2018,04,24,16,04,19.50
2018,04,24,16,05,19.40
2018,04,24,16,06,19.40
2018,04,24,16,07,19.50
2018,04,24,16,08,19.50
2018,04,24,16,09,19.50
2018,04,24,16,10,19.50
2018,04,24,16,11,19.50
2018,04,24,16,12,19.50
2018,04,24,16,13,19.60
2018,04,24,16,14,19.60
2018,04,24,16,15,19.60
2018,04,24,16,16,19.60
2018,04,24,16,17,19.50
2018,04,24,16,18,19.50
2018,04,24,16,19,19.40
2018,04,24,16,20,19.40
2018,04,24,16,21,19.40
2018,04,24,16,22,19.40
2018,04,24,16,23,19.50
2018,04,24,16,24,19.50
2018,04,24,16,25,19.50
2018,04,24,16,26,19.50
2018,04,24,16,27,19.60
2018,04,24,16,28,19.50
2018,04,24,16,29,19.50
2018,04,24,16,30,19.50
2018,04,24,16,31,19.50
2018,04,24,16,32,19.50
2018,04,24,16,33,19.60
2018,04,24,16,34,19.60
2018,04,24,16,35,19.60
2018,04,24,16,36,19.60
2018,04,24,16,37,19.50
2018,04,24,16,38,19.50
2018,04,24,16,39,19.60
2018,04,24,16,40,19.60
2018,04,24,16,41,19.70
2018,04,24,16,42,19.70
2018,04,24,16,43,19.70
2018,04,24,16,44,19.70
2018,04,24,16,45,19.80
2018,04,24,16,46,19.70
2018,04,24,16,47,19.70
2018,04,24,16,48,19.60
2018,04,24,16,49,19.60
2018,04,24,16,50,19.50
2018,04,24,16,51,19.40
2018,04,24,16,52,19.40
2018,04,24,16,53,19.30
2018,04,24,16,54,19.40
2018,04,24,16,55,19.40
2018,04,24,16,56,19.40
2018,04,24,16,57,19.40
2018,04,24,16,58,19.50
2018,04,24,16,59,19.50
2018,04,24,17,00,19.50
2018,04,24,17,01,19.50
2018,04,24,17,02,19.50
2018,04,24,17,03,19.50
2018,04,24,17,04,19.50
2018,04,24,17,05,19.50
2018,04,24,17,06,19.50
2018,04,24,17,07,19.50
2018,04,24,17,08,19.50
2018,04,24,17,09,19.50
2018,04,24,17,10,19.40
2018,04,24,17,11,19.40
2018,04,24,17,12,19.40
2018,04,24,17,13,19.40
2018,04,24,17,14,19.40
2018,04,24,17,15,19.40
2018,04,24,17,16,19.40
2018,04,24,17,17,19.40
2018,04,24,17,18,19.50
2018,04,24,17,19,19.50
2018,04,24,17,20,19.50
2018,04,24,17,21,19.60
2018,04,24,17,22,19.60
2018,04,24,17,23,19.70
2018,04,24,17,24,19.70
2018,04,24,17,25,19.70
2018,04,24,17,26,19.80
2018,04,24,17,27,19.70
2018,04,24,17,28,19.70
2018,04,24,17,29,19.70
2018,04,24,17,30,19.70
2018,04,24,17,31,19.70
2018,04,24,17,32,19.70
2018,04,24,17,33,19.60
2018,04,24,17,34,19.60
2018,04,24,17,35,19.60
2018,04,24,17,36,19.60
2018,04,24,17,37,19.60
2018,04,24,17,38,19.60
2018,04,24,17,39,19.60
2018,04,24,17,40,19.50
2018,04,24,17,41,19.50
2018,04,24,17,42,19.50
2018,04,24,17,43,19.50
2018,04,24,17,44,19.50
2018,04,24,17,45,19.50
2018,04,24,17,46,19.40
2018,04,24,17,47,19.40
2018,04,24,17,48,19.40
2018,04,24,17,49,19.30
2018,04,24,17,50,19.30
2018,04,24,17,51,19.30
2018,04,24,17,52,19.30
2018,04,24,17,53,19.30
2018,04,24,17,54,19.20
2018,04,24,17,55,19.20
2018,04,24,17,56,19.20
2018,04,24,17,57,19.20
2018,04,24,17,58,19.20
2018,04,24,17,59,19.30
2018,04,24,18,00,19.30
2018,04,24,18,01,19.20
2018,04,24,18,02,19.30
2018,04,24,18,03,19.30
2018,04,24,18,04,19.20
2018,04,24,18,05,19.20
2018,04,24,18,06,19.20
2018,04,24,18,07,19.20
2018,04,24,18,08,19.30
2018,04,24,18,09,19.30
2018,04,24,18,10,19.30
2018,04,24,18,11,19.30
2018,04,24,18,12,19.30
2018,04,24,18,13,19.20
2018,04,24,18,14,19.20
2018,04,24,18,15,19.20
2018,04,24,18,16,19.20
2018,04,24,18,17,19.30
2018,04,24,18,18,19.30
2018,04,24,18,19,19.20
2018,04,24,18,20,19.20
2018,04,24,18,21,19.20
2018,04,24,18,22,19.20
2018,04,24,18,23,19.20
2018,04,24,18,24,19.20
2018,04,24,18,25,19.20
2018,04,24,18,26,19.20
2018,04,24,18,27,19.20
2018,04,24,18,28,19.20
2018,04,24,18,29,19.20
2018,04,24,18,30,19.20
2018,04,24,18,31,19.30
2018,04,24,18,32,19.30
2018,04,24,18,33,19.20
2018,04,24,18,34,19.20
2018,04,24,18,35,19.20
2018,04,24,18,36,19.20
2018,04,24,18,37,19.20
2018,04,24,18,38,19.20
2018,04,24,18,39,19.20
2018,04,24,18,40,19.20
2018,04,24,18,41,19.20
2018,04,24,18,42,19.20
2018,04,24,18,43,19.20
2018,04,24,18,44,19.20
2018,04,24,18,45,19.20
2018,04,24,18,46,19.20
2018,04,24,18,47,19.20
2018,04,24,18,48,19.10
2018,04,24,18,49,19.10
2018,04,24,18,50,19.10
2018,04,24,18,51,19.00
2018,04,24,18,52,18.90
2018,04,24,18,53,18.90
2018,04,24,18,54,18.90
2018,04,24,18,55,18.80
2018,04,24,18,56,18.80
2018,04,24,18,57,18.80
2018,04,24,18,58,18.80
2018,04,24,18,59,18.70
2018,04,24,19,00,18.70
2018,04,24,19,01,18.70
2018,04,24,19,02,18.70
2018,04,24,19,03,18.60
2018,04,24,19,04,18.60
2018,04,24,19,05,18.60
2018,04,24,19,06,18.50
2018,04,24,19,07,18.50
2018,04,24,19,08,18.40
2018,04,24,19,09,18.40
2018,04,24,19,10,18.40
2018,04,24,19,11,18.40
2018,04,24,19,12,18.40
2018,04,24,19,13,18.30
2018,04,24,19,14,18.30
2018,04,24,19,15,18.30
2018,04,24,19,16,18.30
2018,04,24,19,17,18.30
2018,04,24,19,18,18.30
2018,04,24,19,19,18.30
2018,04,24,19,20,18.30
2018,04,24,19,21,18.30
2018,04,24,19,22,18.30
2018,04,24,19,23,18.20
2018,04,24,19,24,18.20
2018,04,24,19,25,18.20
2018,04,24,19,26,18.20
2018,04,24,19,27,18.20
2018,04,24,19,28,18.20
2018,04,24,19,29,18.10
2018,04,24,19,30,18.10
2018,04,24,19,31,18.10
2018,04,24,19,32,18.10
2018,04,24,19,33,18.10
2018,04,24,19,34,18.10
2018,04,24,19,35,18.10
2018,04,24,19,36,18.10
2018,04,24,19,37,18.10
2018,04,24,19,38,18.10
2018,04,24,19,39,18.10
2018,04,24,19,40,18.10
2018,04,24,19,41,18.10
2018,04,24,19,42,18.00
2018,04,24,19,43,18.00
2018,04,24,19,44,18.00
2018,04,24,19,45,17.90
2018,04,24,19,46,17.90
2018,04,24,19,47,17.90
2018,04,24,19,48,17.80
2018,04,24,19,49,17.80
2018,04,24,19,50,17.80
2018,04,24,19,51,17.80
2018,04,24,19,52,17.80
2018,04,24,19,53,17.70
2018,04,24,19,54,17.70
2018,04,24,19,55,17.70
2018,04,24,19,56,17.70
2018,04,24,19,57,17.60
2018,04,24,19,58,17.60
2018,04,24,19,59,17.60
2018,04,24,20,00,17.60
2018,04,24,20,01,17.50
2018,04,24,20,02,17.50
2018,04,24,20,03,17.50
2018,04,24,20,04,17.50
2018,04,24,20,05,17.40
2018,04,24,20,06,17.40
2018,04,24,20,07,17.40
2018,04,24,20,08,17.30
2018,04,24,20,09,17.30
2018,04,24,20,10,17.30
2018,04,24,20,11,17.30
2018,04,24,20,12,17.30
2018,04,24,20,13,17.20
2018,04,24,20,14,17.20
2018,04,24,20,15,17.20
2018,04,24,20,16,17.20
2018,04,24,20,17,17.20
2018,04,24,20,18,17.10
2018,04,24,20,19,17.10
2018,04,24,20,20,17.10
2018,04,24,20,21,17.10
2018,04,24,20,22,17.10
2018,04,24,20,23,17.10
2018,04,24,20,24,17.00
2018,04,24,20,25,17.00
2018,04,24,20,26,17.00
2018,04,24,20,27,16.90
2018,04,24,20,28,16.90
2018,04,24,20,29,16.90
2018,04,24,20,30,16.80
2018,04,24,20,31,16.80
2018,04,24,20,32,16.70
2018,04,24,20,33,16.70
2018,04,24,20,34,16.60
2018,04,24,20,35,16.60
2018,04,24,20,36,16.50
2018,04,24,20,37,16.50
2018,04,24,20,38,16.40
2018,04,24,20,39,16.40
2018,04,24,20,40,16.30
2018,04,24,20,41,16.30
2018,04,24,20,42,16.30
2018,04,24,20,43,16.30
2018,04,24,20,44,16.30
2018,04,24,20,45,16.20
2018,04,24,20,46,16.20
2018,04,24,20,47,16.20
2018,04,24,20,48,16.20
2018,04,24,20,49,16.10
2018,04,24,20,50,16.00
2018,04,24,20,51,15.90
2018,04,24,20,52,15.80
2018,04,24,20,53,15.70
2018,04,24,20,54,15.50
2018,04,24,20,55,15.40
2018,04,24,20,56,15.30
2018,04,24,20,57,15.20
2018,04,24,20,58,15.10
2018,04,24,20,59,15.00
2018,04,24,21,00,14.90
2018,04,24,21,01,14.80
2018,04,24,21,02,14.80
2018,04,24,21,03,14.70
2018,04,24,21,04,14.60
2018,04,24,21,05,14.60
2018,04,24,21,06,14.50
2018,04,24,21,07,14.40
2018,04,24,21,08,14.40
2018,04,24,21,09,14.30
2018,04,24,21,10,14.30
2018,04,24,21,11,14.30
2018,04,24,21,12,14.20
2018,04,24,21,13,14.20
2018,04,24,21,14,14.20
2018,04,24,21,15,14.20
2018,04,24,21,16,14.20
2018,04,24,21,17,14.10
2018,04,24,21,18,14.10
2018,04,24,21,19,14.10
2018,04,24,21,20,14.10
2018,04,24,21,21,14.10
2018,04,24,21,22,14.10
2018,04,24,21,23,14.10
2018,04,24,21,24,14.10
2018,04,24,21,25,14.10
2018,04,24,21,26,14.10
2018,04,24,21,27,14.10
2018,04,24,21,28,14.10
2018,04,24,21,29,14.00
2018,04,24,21,30,14.00
2018,04,24,21,31,14.00
2018,04,24,21,32,14.00
2018,04,24,21,33,14.00
2018,04,24,21,34,14.00
2018,04,24,21,35,14.00
2018,04,24,21,36,14.00
2018,04,24,21,37,14.00
2018,04,24,21,38,14.00
2018,04,24,21,39,14.00
2018,04,24,21,40,14.00
2018,04,24,21,41,14.00
2018,04,24,21,42,14.00
2018,04,24,21,43,13.90
2018,04,24,21,44,13.90
2018,04,24,21,45,13.90
2018,04,24,21,46,13.90
2018,04,24,21,47,13.80
2018,04,24,21,48,13.80
2018,04,24,21,49,13.80
2018,04,24,21,50,13.80
2018,04,24,21,51,13.80
2018,04,24,21,52,13.80
2018,04,24,21,53,13.80
2018,04,24,21,54,13.80
2018,04,24,21,55,13.80
2018,04,24,21,56,13.80
2018,04,24,21,57,13.80
